Regional Weather Roundup
Issued by NWS

Home | Current Version | Previous Version | Graphics & Text | Print | Product List | Glossary On
Versions: 1 2 3 4 5 6 7 8 9 10 11 12 13 14 15 16 17 18 19 20 21 22 23 24 25 26 27 28 29 30 31 32 33 34 35 36 37 38 39 40 41 42 43 44 45 46 47 48 49 50
000
ASUS43 KDTX 030710
RWRMI
MICHIGAN HOURLY REGIONAL WEATHER ROUNDUP
NATIONAL WEATHER SERVICE DETROIT/PONTIAC MI
300 AM EDT WED JUN 03 2015

NOTE: "FAIR" INDICATES FEW OR NO CLOUDS BELOW 12,000 FEET WITH NO
SIGNIFICANT WEATHER AND/OR OBSTRUCTION TO VISIBILITY.

MIZ047>049-052>055-059>063-066>070-074>076-081>083-030800-
SOUTHEAST LOWER MICHIGAN

CITY           SKY/WX    TMP DP  RH WIND       PRES   REMARKS
ADRIAN         CLEAR     50  45  83 NE5       30.13S
ALMA           CLEAR     47  44  91 CALM      30.14S
ANN ARBOR      CLEAR     41  39  93 CALM      30.13S
BAD AXE        CLEAR     42  36  78 CALM      30.15F
CARO           CLEAR     47  40  77 CALM      30.14S
DETROIT        PTCLDY    55  45  68 E3        30.13F
FLINT          CLEAR     49  46  90 SE5       30.14
GROSSE ILE     CLEAR     54  46  76 CALM      30.12F
HILLSDALE      CLEAR     53  48  83 E7        30.12S
HOWELL         CLEAR     49  47  93 CALM      30.14S

CITY           SKY/WX    TMP DP  RH WIND       PRES   REMARKS
JACKSON        CLEAR     49  43  80 E5        30.13F
LAMBERTVILLE   CLEAR     50  46  87 CALM      30.12F
LANSING        CLEAR     53  45  74 SE6       30.14
LAPEER         FAIR      43  41  93 CALM      30.15S
MASON          CLEAR     49  43  81 SE3       30.14S
MONROE         CLEAR     50  46  87 CALM      30.11F
MT. CLEMENS    CLEAR     48  45  87 E1        30.11F
PORT HOPE        N/A     51  36  56 S5        30.14S
PORT HURON     CLEAR     43  43 100 CALM      30.14F
TRI CITIES     CLEAR     54  46  74 CALM      30.15R
MIDLAND        FAIR      47  45  93 CALM      30.14R
TROY           CLEAR     54  49  81 NE3       30.15S
SAGINAW HB     CLEAR     52  52 100 CALM      30.14S
$$
MIZ043>046-050>051-056>058-064>065-071>073-077>080-030800-
SOUTHWEST LOWER MICHIGAN

CITY           SKY/WX    TMP DP  RH WIND       PRES   REMARKS
BATTLE CREEK   CLEAR     55  43  63 SE3       30.13F
BENTON HARBOR  CLEAR     54  44  69 SE3       30.11S
BIG RAPIDS     CLEAR     47  43  87 CALM      30.12S
COLDWATER      CLEAR     47  42  82 CALM      30.12F
FREMONT        FAIR      53  48  82 S3        30.11R
HOLLAND        PTCLDY    53  47  79 S5        30.13R
GRAND RAPIDS   CLEAR     54  47  77 SE5       30.13S
IONIA          FAIR      50  47  88 S3        30.12F
KALAMAZOO      CLEAR     53  42  66 SE3       30.13S
LUDINGTON      CLEAR     43  40  89 CALM      30.10S
MARSHALL       CLEAR     47  43  88 CALM      30.12F
MOUNT PLEASANT CLEAR     46  44  90 CALM      30.14R
MUSKEGON       PTCLDY    54  47  77 S7        30.12R
SOUTH HAVEN    CLEAR     54  45  72 CALM      30.11S
$$
MIZ016>042-030800-
NORTHERN LOWER MICHIGAN

CITY           SKY/WX    TMP DP  RH WIND       PRES   REMARKS
ALPENA         CLEAR     40  35  83 CALM      30.14S
BEAVER ISLAND  CLEAR     42  36  79 SE7       30.10S
BELLAIRE       CLEAR     42  41  95 CALM      30.12S
CADILLAC       CLEAR     53  40  61 SE6       30.12R
CHARLEVOIX     CLEAR     46  41  82 SE3       30.14S
FRANKFORT      CLEAR     45  36  70 CALM      30.10S
GAYLORD        CLEAR     50  40  68 S3        30.13S
GRAYLING       CLEAR     41  38  88 CALM      30.14S
HARBOR SPRINGS CLEAR     44  41  88 CALM      30.12R
HOUGHTON LAKE  CLEAR     47  38  71 E5        30.13S
MANISTEE       CLEAR     45  37  76 E5        30.10F
OSCODA         CLEAR     41  36  81 CALM      30.14F
PELLSTON       CLEAR     40  38  93 CALM      30.12R
ROGERS CITY    CLEAR     51  39  61 SW9       30.13S
TRAVERSE CITY  CLEAR     45  40  82 CALM      30.11R
$$
MIZ007>008-015-030800-
EASTERN UPPER MICHIGAN

CITY           SKY/WX    TMP DP  RH WIND       PRES   REMARKS
KINROSS        CLEAR     46  36  66 CALM      30.10S
MACKINAC ISLAN CLEAR     53  40  62 S7        30.10S
NEWBERRY       CLEAR     47  35  62 S6        30.08S
S. S. MARIE    CLEAR     48  37  65 E5        30.10S
MUNISING         N/A     50  35  56 S9        30.04F
$$
MIZ004>006-011>014-085-030800-
CENTRAL UPPER MICHIGAN

CITY           SKY/WX    TMP DP  RH WIND       PRES   REMARKS
MANISTIQUE     CLEAR     46  38  73 S5        30.08S
ESCANABA       PTCLDY    52  43  71 S5        30.06F
MENOMINEE      PTCLDY    50  41  71 S6        30.05F
SAWYER-GWINN   CLOUDY    49  41  74 S8        30.04S
$$
MIZ001>003-009>011-084-030800-
WESTERN UPPER MICHIGAN

CITY           SKY/WX    TMP DP  RH WIND       PRES   REMARKS
IRON MOUNTAIN  MOCLDY    50  36  58 SE6       30.03S
HOUGHTON       CLOUDY    55  43  63 S8        29.97S
COPPER HARBOR    N/A     56  41  57 SW10      29.96S
IRONWOOD       MOCLDY    63  43  48 S5        29.92S
$$

ABBREVIATIONS USED IN REMARKS
   TC - TEMPERATURE IN CELSIUS
  WCI - WIND CHILL INDEX
   HX - HEAT INDEX
  VSB - VISIBILITY



USA.gov is the U.S. government's official web portal to all federal, state and local government web resources and services.